[[{"header":{"parameterUnit":"m.s-1","parameterCategory":1,"la1":30.2992,"la2":30.254,"lo1":-89.0895,"lo2":-89.0443,"dy":0.0025,"dx":0.0025,"nx":19,"ny":19,"refTime":"2026-05-24T21:00:00:Z","depth":0,"parameterNumber":2,"parameterNumberName":"U-component_of_WINDS"},"data":[0,0,0,-1.0643,-1.0647,-1.0848,-1.0849,-1.1103,-1.1105,0,0,0,0,0,0,0,0,0,0,0,-1.0578,-1.0579,-1.0642,-1.0647,-1.0848,-1.0849,-1.1103,-1.1105,0,0,0,0,0,0,0,0,0,0,0,-1.0577,-1.0579,-1.0581,-1.0648,-1.0848,-1.0849,-1.1102,-1.0952,0,0,0,0,0,0,0,0,0,0,-1.0758,-1.0692,-1.0579,-1.0581,-1.0649,-1.0848,-1.0849,-1.0945,-1.0962,-1.1009,0,-1.1047,0,-1.108,-1.1122,-1.1122,0,0,0,-1.0652,-1.0678,-1.0737,-1.0581,-1.0651,-1.0847,-1.0759,-1.0955,-1.0973,-1.1031,-1.1051,-1.1061,-1.1084,-1.1123,-1.1124,-1.1375,-1.1376,0,0,-1.0641,-1.0612,-1.0724,-1.0749,-1.0713,-1.0752,-1.0765,-1.0966,-1.0987,-1.1052,-1.1067,-1.1088,-1.1125,-1.1127,-1.1374,-1.1376,0,0,0,-1.0606,-1.0604,-1.0658,-1.0738,-1.0774,-1.0758,-1.0773,-1.0978,-1.0998,-1.107,-1.1091,-1.1126,-1.1129,-1.1373,-1.1375,-1.1393,0,0,0,-1.06,-1.0584,-1.0653,-1.0637,-1.077,-1.0878,-1.078,-1.0984,-1.1008,-1.109,-1.1126,-1.1132,-1.1372,-1.1374,-1.139,-1.1407,0,0,0,-1.0567,-1.058,-1.0607,-1.0635,-1.072,-1.0875,-1.0907,-1.099,-1.1021,-1.1123,-1.1132,-1.1372,-1.1374,-1.1388,-1.1403,-1.1465,0,0,0,-1.0525,-1.0621,-1.0607,-1.0723,-1.0718,-1.0883,-1.0906,-1.1031,-1.112,-1.1128,-1.1373,-1.1375,-1.1387,-1.1401,-1.1462,-1.1513,-1.1531,0,0,-1.0631,-1.0633,-1.0704,-1.0697,-1.0856,-1.0855,-1.1019,-1.113,-1.1168,-1.1305,-1.1311,-1.1391,-1.1403,-1.1465,-1.1637,-1.1651,0,0,0,-1.0728,-1.0779,-1.0827,-1.0909,-1.0993,-1.1069,-1.1157,-1.1198,-1.1316,-1.1231,-1.143,-1.1438,-1.1476,-1.1502,-1.1513,-1.1548,-1.1385,-1.1384,-1.1384,-1.0839,-1.0878,-1.0999,-1.1063,-1.1143,-1.1232,-1.1302,-1.1373,-1.1393,-1.1439,-1.1481,-1.158,-1.1609,-1.1618,-1.1654,-1.1509,-1.1509,-1.1509,-1.1509,-1.0999,-1.1078,-1.1099,-1.1223,-1.1266,-1.1373,-1.1463,-1.1473,-1.158,-1.1552,-1.1587,-1.1554,-1.1632,-1.1666,-1.1511,-1.1511,-1.1511,-1.151,-1.151,-1.1078,-1.1123,-1.1168,-1.1291,-1.1381,-1.1444,-1.1545,-1.1581,-1.1617,-1.1651,-1.17,-1.17,-1.1706,-1.1671,-1.1672,-1.1672,-1.1672,-1.1673,-1.1673,-1.1142,-1.1193,-1.1272,-1.1369,-1.1426,-1.1506,-1.1596,-1.1655,-1.173,-1.1749,-1.175,-1.1766,-1.163,-1.1596,-1.1679,-1.1678,-1.1677,-1.1676,-1.1676,-1.1294,-1.1264,-1.1386,-1.1443,-1.1561,-1.1649,-1.1692,-1.1809,-1.1863,-1.1912,-1.192,-1.1813,-1.182,-1.1811,-1.1783,-1.1909,-1.1909,-1.1909,-1.1909,-1.1362,-1.1366,-1.1499,-1.1588,-1.168,-1.1731,-1.1872,-1.1943,-1.2013,-1.2049,-1.2036,-1.2002,-1.1991,-1.2004,-1.1991,-1.1966,-1.2136,-1.2136,-1.2136,-1.1458,-1.1473,-1.1584,-1.1648,-1.1742,-1.1823,-1.1957,-1.2061,-1.2135,-1.2146,-1.2079,-1.207,-1.2015,-1.1995,-1.2007,-1.1985,-1.1941,0,0]},{"header":{"parameterUnit":"m.s-1","parameterCategory":1,"la1":30.2992,"la2":30.254,"lo1":-89.0895,"lo2":-89.0443,"dy":0.0025,"dx":0.0025,"nx":19,"ny":19,"refTime":"2026-05-24T21:00:00:Z","depth":0,"parameterNumber":3,"parameterNumberName":"V-component_of_WINDS"},"data":[0,0,0,0.3869,0.3869,0.3914,0.3914,0.3965,0.3965,0,0,0,0,0,0,0,0,0,0,0,0.385,0.385,0.3868,0.3869,0.3914,0.3914,0.3965,0.3965,0,0,0,0,0,0,0,0,0,0,0,0.385,0.385,0.3851,0.387,0.3914,0.3914,0.3965,0.3934,0,0,0,0,0,0,0,0,0,0,0.3892,0.387,0.385,0.3851,0.387,0.3914,0.3914,0.3932,0.3936,0.3942,0,0.3945,0,0.3956,0.3968,0.3968,0,0,0,0.3874,0.3867,0.3883,0.3851,0.387,0.3914,0.3895,0.3934,0.3938,0.3946,0.3945,0.3947,0.3956,0.3968,0.3969,0.3988,0.3988,0,0,0.3871,0.3856,0.3881,0.3885,0.3876,0.3893,0.3896,0.3937,0.3935,0.3946,0.3949,0.3957,0.3969,0.3969,0.3988,0.3988,0,0,0,0.3861,0.3854,0.387,0.3883,0.3891,0.3895,0.3898,0.3934,0.394,0.3949,0.3958,0.3969,0.3969,0.3988,0.3988,0.3967,0,0,0,0.386,0.3848,0.3868,0.3859,0.389,0.3913,0.3894,0.3937,0.3942,0.3958,0.3969,0.397,0.3988,0.3988,0.3968,0.396,0,0,0,0.3849,0.3847,0.3852,0.3859,0.3877,0.3912,0.3921,0.3938,0.3947,0.3968,0.397,0.3988,0.3988,0.3969,0.3961,0.3961,0,0,0,0.3834,0.3833,0.3851,0.3854,0.3876,0.3899,0.3921,0.3939,0.3955,0.3969,0.3988,0.3988,0.3969,0.3962,0.3961,0.3957,0.3954,0,0,0.3824,0.3831,0.3834,0.3852,0.3867,0.3893,0.3907,0.3936,0.3953,0.3976,0.3976,0.3968,0.3961,0.3961,0.3941,0.3939,0,0,0,0.3826,0.3828,0.3836,0.3849,0.3872,0.389,0.3919,0.3931,0.395,0.3961,0.3968,0.3965,0.3965,0.3964,0.3961,0.3963,0.3987,0.3987,0.3987,0.3791,0.3812,0.3819,0.3845,0.3858,0.3889,0.3902,0.3923,0.394,0.3942,0.3948,0.3934,0.3932,0.393,0.3931,0.3948,0.3948,0.3948,0.3948,0.378,0.3786,0.3809,0.3824,0.3847,0.386,0.389,0.3902,0.3919,0.393,0.3932,0.3942,0.3926,0.3928,0.3946,0.3947,0.3947,0.3947,0.3947,0.3759,0.3765,0.3778,0.3801,0.3817,0.3845,0.3859,0.388,0.3899,0.3901,0.391,0.3911,0.3914,0.3904,0.3904,0.3904,0.3904,0.3904,0.3904,0.3731,0.3747,0.3756,0.378,0.3792,0.3811,0.3842,0.3855,0.3875,0.3889,0.3889,0.3907,0.3921,0.3923,0.3903,0.3903,0.3903,0.3903,0.3903,0.3711,0.3719,0.3733,0.3745,0.3776,0.379,0.3817,0.3842,0.3856,0.3862,0.388,0.3887,0.3896,0.3898,0.39,0.3875,0.3875,0.3875,0.3875,0.3693,0.37,0.3719,0.3737,0.3757,0.3783,0.38,0.3825,0.3852,0.3863,0.3869,0.3875,0.3876,0.3884,0.3887,0.3889,0.3862,0.3862,0.3862,0.3682,0.3692,0.3701,0.3727,0.3752,0.3775,0.3791,0.3813,0.3846,0.3862,0.3871,0.3872,0.3881,0.3882,0.3897,0.39,0.3906,0,0]}]]